Home   Weather   Kalispell   Past weeks

Flag for USA Past Weather in Kalispell, Montana, USA — Yesterday and Last 2 Weeks

Now
32 °F

Overcast.


Feels Like: 26 °F
Forecast: 19 / 30 °F
Wind: 7 mph from Northeast

Location: Kalispell - Glacier Park International

Current Time: Jan 23, 2017 at 2:35:09 pm

Latest Report: Jan 23, 2017 at 1:55 pm


Visibility: 10 mi

Pressure: 29.78 "Hg (26.60 "Hg at 902m altitude)

Humidity: 66%

Dew Point: 22 °F

Location of KalispellLocation

Past Weather in Kalispell — Graph

°F

Kalispell Temperature Yesterday

Maximum temperature yesterday: 34 °F (at 1:55 pm)
Minimum temperature yesterday: 19 °F (at 5:28 am)
Average temperature yesterday: 24 °F

High & Low Weather Summary for the Past Weeks

 TemperatureHumidityPressure
High38 °F (Jan 20, 1:55 pm)100% (Jan 19, 8:01 pm)30.73 "Hg (Jan 19, 8:01 pm)
Low-19 °F (Jan 12, 12:55 am)61% (Jan 11, 2:55 pm)29.31 "Hg (Jan 20, 8:11 pm)
Average17 °F86%29.96 "Hg
* Reported Jan 8 12:55 pm — Jan 23 12:55 pm, Kalispell, Weather by CustomWeather, © 2017

Note: Actual official high and low records may vary slightly from our data, if they occured in-between our weather recording intervals... More about our weather records

Advertising

Kalispell Weather History for the Previous 24 Hours

Scroll right to see more
 ConditionsComfort  
Time TempWeatherWind HumidityBarometerVisibility
12:55 pm
Mon, Jan 23
33 °FOvercast.7 mph63%29.78 "Hg10 mi
11:55 am30 °FPartly sunny.10 mph69%29.81 "Hg10 mi
10:55 am30 °FPartly sunny.7 mph66%29.81 "Hg10 mi
9:55 am28 °FPartly sunny.14 mph72%29.80 "Hg10 mi
8:55 am28 °FPartly sunny.16 mph75%29.78 "Hg10 mi
7:55 am29 °FOvercast.14 mph79%29.77 "Hg10 mi
7:32 am29 °FOvercast.14 mph82%29.68 "Hg8 mi
7:10 am29 °FLight snow. Overcast.13 mph82%29.68 "Hg3 mi
6:55 am29 °FLight snow. Overcast.13 mph82%29.77 "Hg2 mi
6:23 am29 °FLight snow. Overcast.14 mph82%29.67 "Hg2 mi
5:55 am30 °FOvercast.13 mph79%29.76 "Hg7 mi
4:55 am30 °FLight snow. Overcast.16 mph75%29.72 "Hg4 mi
4:43 am31 °FLight snow. Overcast.13 mph73%29.65 "Hg5 mi
3:55 am31 °FLight snow. Overcast.15 mph73%29.71 "Hg5 mi
3:37 am31 °FLight snow. Overcast.17 mph76%29.63 "Hg4 mi
2:55 am31 °FLight snow. Overcast.13 mph76%29.70 "Hg4 mi
2:14 am31 °FLight snow. Overcast.15 mph79%29.63 "Hg4 mi
1:55 am32 °FOvercast.13 mph73%29.68 "Hg10 mi
12:55 am30 °FOvercast.17 mph82%29.68 "Hg10 mi
12:22 am27 °FLight snow. Ice fog.7 mph92%29.61 "Hg4 mi
11:55 pm
Sun, Jan 22
26 °FLight snow. Ice fog.3 mph96%29.71 "Hg1 mi
11:33 pm27 °FIce fog.No wind96%29.63 "Hg1 mi
10:55 pm26 °FIce fog.No wind96%29.72 "Hg0 mi
10:29 pm26 °FIce fog.No wind96%29.61 "Hg1 mi
10:23 pm25 °FIce fog.3 mph96%29.61 "Hg2 mi
9:55 pm25 °FIce fog.No wind96%29.71 "Hg3 mi
8:55 pm24 °FIce fog.No wind96%29.71 "Hg4 mi
7:55 pm25 °FIce fog.No wind96%29.71 "Hg4 mi
6:55 pm23 °FClear.8 mph92%29.71 "Hg10 mi
5:55 pm24 °FClear.No wind88%29.71 "Hg10 mi
4:55 pm31 °FSunny.3 mph76%29.70 "Hg10 mi
3:55 pm31 °FSunny.3 mph76%29.71 "Hg10 mi
2:55 pm31 °FSunny.7 mph76%29.73 "Hg10 mi
Weather by CustomWeather, © 2017

See weather overviewHow to use our weather pages